Date String (YYYY-MM-DD hh:mm:ss) UTC,Instrument flags,Ambient pressure (hPa),Sample flow (lpm),Bypass flow (lpm),Sample temperature (°C),Ambient temperature (°C),ASC tube jacket temperature (°C),LED temperature (°C),Box temperature (°C),Sample RH (%),Span deviation,Mass concentration (μg/m³),Mass concentration (μg/m³),Mass concentration (μg/m³)
DateTimeUTC,F1_M11,P_M11,Q1_M11,Q2_M11,T1_M11,T2_M11,T3_M11,T4_M11,T5_M11,U1_M11,ZSPAN_M11,X0_M11,X2_M11,X1_M11
2021-09-10 14:00:00,,0830.5,5.00,0.00,29.9,28.8,00.0,38.9,31.7,10.1,0000.5,0030.14,0019.66,0018.39
2021-09-10 14:01:00,,0830.5,5.00,0.00,29.9,28.9,00.0,38.9,31.7,10.4,0000.7,0029.36,0019.67,0018.40
2021-09-10 14:02:00,,0830.5,5.00,0.00,29.9,28.9,00.0,38.9,31.8,10.6,0000.8,0030.43,0019.77,0018.47
2021-09-10 14:03:00,,0830.6,5.00,0.00,30.0,29.0,00.0,39.0,31.8,10.8,0000.9,0030.89,0019.85,0018.52
2021-09-10 14:04:00,,0830.5,5.01,0.00,30.0,29.1,00.0,39.0,31.8,11.1,0000.0,0030.89,0019.88,0018.54
2021-09-10 14:05:00,,0830.5,5.00,0.00,30.0,29.1,00.0,39.0,31.9,11.6,-000.5,0031.31,0020.04,0018.60
2021-09-10 14:06:00,,0830.5,5.00,0.00,30.1,29.2,00.0,39.0,31.9,11.9,-000.3,0031.76,0020.22,0018.64
2021-09-10 14:07:00,,0830.5,4.99,0.00,30.1,29.2,00.0,39.0,31.9,12.3,-000.3,0033.34,0020.40,0018.66
2021-09-10 14:08:00,,0830.6,5.00,0.00,30.1,29.3,00.0,39.1,32.0,12.6,-000.2,0036.72,0020.67,0018.68
2021-09-10 14:09:00,,0830.6,5.00,0.00,30.2,29.3,00.0,39.1,32.0,12.2,-000.6,0039.56,0020.93,0018.68
2021-09-10 14:10:00,,0830.6,4.98,0.00,30.2,29.4,00.0,39.1,32.0,12.4,-000.8,0040.38,0021.06,0018.66
2021-09-10 14:11:00,,0830.6,5.00,0.00,30.2,29.4,00.0,39.1,32.0,12.2,-000.7,0040.68,0021.17,0018.64
2021-09-10 14:12:00,,0830.6,5.01,0.00,30.2,28.9,00.0,39.2,31.9,12.0,-000.6,0042.33,0021.21,0018.61
2021-09-10 14:13:00,,0830.5,4.99,0.00,30.1,27.0,00.0,39.2,31.4,12.4,-000.6,0042.17,0021.25,0018.62
2021-09-10 14:14:00,,0830.5,5.00,0.00,30.0,26.4,00.0,39.1,31.2,11.9,-000.8,0042.00,0021.24,0018.63
2021-09-10 14:15:00,,0830.5,5.01,0.00,29.9,26.7,00.0,39.1,31.3,12.1,-000.9,0041.93,0021.26,0018.65
2021-09-10 14:16:00,,0830.5,5.00,0.00,29.8,27.1,00.0,39.1,31.3,12.0,-000.9,0042.24,0021.24,0018.65
2021-09-10 14:17:00,,0830.5,5.00,0.00,29.8,27.5,00.0,39.0,31.4,12.0,-001.3,0041.96,0021.08,0018.63
2021-09-10 14:18:00,,0830.5,5.00,0.00,29.8,27.9,00.0,39.0,31.5,12.2,-001.3,0040.27,0020.79,0018.58
2021-09-10 14:19:00,,0830.5,5.01,0.00,29.8,28.1,00.0,39.0,31.5,12.6,-001.5,0037.65,0020.57,0018.57
2021-09-10 14:20:00,,0830.6,4.99,0.00,29.9,28.3,00.0,39.0,31.6,12.2,-001.3,0035.08,0020.28,0018.54
2021-09-10 14:21:00,,0830.6,5.00,0.00,29.9,28.5,00.0,39.0,31.6,12.2,-001.2,0035.58,0020.21,0018.56
2021-09-10 14:22:00,,0830.6,5.00,0.00,29.9,28.7,00.0,39.0,31.7,12.2,-001.2,0035.84,0020.13,0018.56
2021-09-10 14:23:00,,0830.6,4.99,0.00,29.9,28.8,00.0,39.0,31.7,12.3,-001.4,0035.29,0020.08,0018.57
2021-09-10 14:24:00,,0830.6,5.01,0.00,30.0,28.9,00.0,39.0,31.8,13.5,-001.4,0034.80,0020.07,0018.59
2021-09-10 14:25:00,,0830.6,5.00,0.00,30.0,29.0,00.0,39.0,31.8,14.9,-001.3,0035.31,0020.06,0018.58
2021-09-10 14:26:00,,0830.6,5.00,0.00,30.0,29.1,00.0,39.0,31.9,15.0,-000.7,0035.87,0020.11,0018.62
2021-09-10 14:27:00,,0830.6,5.00,0.00,30.1,29.1,00.0,39.0,31.9,14.7,-000.7,0035.74,0020.12,0018.61
2021-09-10 14:28:00,,0830.6,4.99,0.00,30.1,29.2,00.0,39.1,31.9,14.2,-000.8,0036.56,0020.16,0018.61
2021-09-10 14:29:00,,0830.6,5.01,0.00,30.1,29.3,00.0,39.1,32.0,14.3,-001.1,0037.01,0020.24,0018.64
2021-09-10 14:30:00,,0830.6,5.00,0.00,30.2,29.3,00.0,39.1,32.0,14.7,-000.8,0038.70,0020.33,0018.66
2021-09-10 14:31:00,,0830.6,5.00,0.00,30.2,29.1,00.0,39.1,31.9,14.4,-000.6,0040.17,0020.39,0018.65
2021-09-10 14:32:00,,0830.5,5.00,0.00,30.1,27.3,00.0,39.1,31.5,14.6,-000.5,0039.06,0020.36,0018.64
2021-09-10 14:33:00,,0830.6,5.01,0.00,29.9,26.3,00.0,39.1,31.2,14.7,-000.2,0038.67,0020.36,0018.62
2021-09-10 14:34:00,,0830.5,5.00,0.00,29.9,26.6,00.0,39.1,31.2,14.6,0000.4,0038.91,0020.35,0018.61
2021-09-10 14:35:00,,0830.5,4.99,0.00,29.8,27.0,00.0,39.0,31.3,15.3,0001.0,0039.19,0020.33,0018.56
2021-09-10 14:36:00,,0830.5,5.00,0.00,29.8,27.4,00.0,39.0,31.3,15.8,0001.3,0039.00,0020.33,0018.52
2021-09-10 14:37:00,,0830.5,5.01,0.00,29.8,27.8,00.0,39.0,31.4,15.1,0001.2,0038.72,0020.24,0018.46
2021-09-10 14:38:00,,0830.5,5.00,0.00,29.8,28.1,00.0,38.9,31.5,14.7,0000.9,0038.86,0020.19,0018.43
2021-09-10 14:39:00,,0830.6,5.00,0.00,29.8,28.3,00.0,38.9,31.5,14.2,0000.9,0037.95,0020.21,0018.43
2021-09-10 14:40:00,,0830.6,5.01,0.00,29.8,28.5,00.0,38.9,31.6,13.9,0001.0,0036.96,0020.18,0018.42
2021-09-10 14:41:00,,0830.6,5.00,0.00,29.9,28.6,00.0,38.9,31.6,13.4,0001.3,0035.18,0020.11,0018.39
2021-09-10 14:42:00,,0830.6,5.01,0.00,29.9,28.8,00.0,39.0,31.7,13.5,0001.1,0034.44,0020.02,0018.35
2021-09-10 14:43:00,,0830.6,4.98,0.00,29.9,28.9,00.0,39.0,31.8,13.5,0001.5,0033.87,0019.94,0018.33
2021-09-10 14:44:00,,0830.6,5.00,0.00,30.0,29.0,00.0,39.0,31.8,14.0,0002.0,0033.56,0019.88,0018.31
2021-09-10 14:45:00,,0830.6,5.01,0.00,30.0,29.1,00.0,39.0,31.9,13.9,0001.7,0032.31,0019.81,0018.28
2021-09-10 14:46:00,,0830.5,5.00,0.00,30.1,29.2,00.0,39.0,31.9,13.7,0001.5,0031.63,0019.74,0018.24
2021-09-10 14:47:00,,0830.6,5.00,0.00,30.1,29.2,00.0,39.1,32.0,13.5,0001.2,0031.22,0019.64,0018.20
2021-09-10 14:48:00,,0830.6,4.99,0.00,30.1,29.1,00.0,39.1,31.9,12.8,0000.6,0031.31,0019.55,0018.15
2021-09-10 14:49:00,,0830.6,5.00,0.00,30.1,27.6,00.0,39.1,31.6,12.7,0000.6,0030.51,0019.51,0018.11
2021-09-10 14:50:00,,0830.6,5.00,0.00,29.9,26.5,00.0,39.0,31.2,12.5,0000.7,0032.14,0019.48,0018.08
2021-09-10 14:51:00,,0830.5,4.99,0.00,29.9,26.9,00.0,39.0,31.3,12.8,0000.3,0033.00,0019.43,0018.03
2021-09-10 14:52:00,,0830.6,5.01,0.00,29.8,27.2,00.0,39.0,31.4,13.0,-000.5,0033.75,0019.37,0017.98
2021-09-10 14:53:00,,0830.6,4.98,0.00,29.8,27.6,00.0,38.9,31.4,13.0,-000.9,0032.63,0019.34,0017.96
2021-09-10 14:54:00,,0830.6,5.01,0.00,29.8,28.0,00.0,38.9,31.5,13.2,-001.2,0032.05,0019.26,0017.91
2021-09-10 14:55:00,,0830.6,5.00,0.00,29.8,28.3,00.0,38.9,31.6,13.3,-001.6,0032.15,0019.23,0017.88
2021-09-10 14:56:00,,0830.6,4.99,0.00,29.9,28.5,00.0,38.9,31.6,13.5,-002.0,0033.04,0019.21,0017.87
2021-09-10 14:57:00,,0830.5,4.99,0.00,29.9,28.7,00.0,38.9,31.7,13.8,-002.1,0032.84,0019.18,0017.87
2021-09-10 14:58:00,,0830.6,4.99,0.00,29.9,28.8,00.0,39.0,31.7,13.6,-001.9,0033.06,0019.21,0017.89
2021-09-10 14:59:00,,0830.6,5.01,0.00,30.0,28.9,00.0,39.0,31.8,13.8,-001.7,0033.60,0019.30,0017.91
